DC1NF-7 Weather Reports


Display with metric or nautical units.
time (UTC)temp
F
wind
direction
speed
MPH
gust
MPH
rain 1hr
in
rain 24hr
in
rain mn
in
humidity
%
barometer
mb
20260506221557 53 264 2.0 6.0 0.00 0.07 0.00 91 1008.4
20260506220552 53 255 4.0 9.0 0.00 0.07 0.00 91 1008.4
20260506215550 54 210 4.0 8.0 0.00 0.07 0.07 90 1008.4
20260506214541 54 256 3.0 7.0 0.00 0.07 0.07 90 1008.4
20260506213538 54 196 3.0 8.0 0.00 0.07 0.07 89 1008.4
20260506212537 54 237 4.0 8.0 0.00 0.07 0.07 89 1008.3
20260506211534 54 203 4.0 6.0 0.00 0.07 0.07 90 1008.2
20260506210530 54 207 2.0 4.0 0.00 0.07 0.07 92 1008.2
20260506205523 55 223 2.0 4.0 0.00 0.07 0.07 91 1008.1
20260506204518 55 247 5.0 11.0 0.01 0.07 0.07 89 1007.9
20260506203515 55 225 3.0 6.0 0.02 0.07 0.07 94 1007.9
20260506202613 55 215 1.0 4.0 0.04 0.07 0.07 94 1007.9
20260506201609 55 206 2.0 4.0 0.05 0.07 0.07 94 1007.8
20260506200609 55 176 1.0 4.0 0.06 0.07 0.07 94 1007.7
20260506195606 55 188 1.0 2.0 0.07 0.07 0.07 94 1007.7
20260506194600 55 183 2.0 4.0 0.06 0.06 0.06 93 1007.6
20260506193559 55 241 2.0 4.0 0.05 0.05 0.05 93 1007.4
20260506192552 56 210 1.0 4.0 0.04 0.04 0.04 92 1007.3
20260506191550 56 248 2.0 4.0 0.02 0.02 0.02 91 1007.2
20260506190546 57 184 2.0 4.0 0.01 0.01 0.01 89 1007.1
20260506185541 57 258 2.0 4.0 0.00 0.00 0.00 87 1006.8
20260506184537 57 231 2.0 4.0 0.00 0.00 0.00 87 1006.8
20260506183534 57 184 4.0 7.0 0.00 0.00 0.00 85 1006.6
20260506182529 58 222 4.0 7.0 0.00 0.00 0.00 83 1006.6
20260506181529 59 198 4.0 9.0 0.00 0.00 0.00 83 1006.5
20260506180520 59 185 3.0 4.0 0.00 0.00 0.00 82 1006.3
20260506175521 59 228 1.0 4.0 0.00 0.00 0.00 81 1006.0
20260506174612 59 180 2.0 4.0 0.00 0.00 0.00 81 1006.0
20260506173609 59 180 2.0 2.0 0.00 0.00 0.00 83 1005.9
20260506172605 60 180 2.0 4.0 0.00 0.00 0.00 81 1005.9
20260506171606 59 0.0 0.0 0.00 0.00 0.00 80 1005.6
20260506170558 60 0.0 0.0 0.00 0.00 0.00 81 1005.7
20260506165554 60 218 1.0 2.0 0.00 0.00 0.00 77 1005.6
20260506164553 60 231 0.0 2.0 0.00 0.00 0.00 81 1005.5
20260506163549 60 104 2.0 4.0 0.00 0.00 0.00 79 1005.4
20260506162543 61 225 0.0 2.0 0.00 0.00 0.00 76 1005.3
20260506161543 60 259 2.0 4.0 0.00 0.02 0.00 74 1005.5
20260506160537 61 254 3.0 6.0 0.00 0.05 0.00 70 1005.5
20260506155539 62 252 3.0 6.0 0.00 0.14 0.00 66 1005.7
20260506154531 62 259 5.0 8.0 0.00 0.25 0.00 65 1005.8
20260506153529 63 225 5.0 11.0 0.00 0.27 0.00 66 1005.8
20260506152525 64 252 5.0 9.0 0.00 0.27 0.00 67 1005.7
20260506151521 65 243 3.0 8.0 0.00 0.27 0.00 62 1005.4
20260506150615 65 234 3.0 4.0 0.00 0.27 0.00 60 1005.4
20260506145612 65 227 1.0 4.0 0.00 0.27 0.00 58 1005.6
20260506144608 66 245 1.0 2.0 0.00 0.27 0.00 58 1005.4
20260506143608 66 239 1.0 4.0 0.00 0.27 0.00 57 1005.3
20260506142603 66 238 1.0 2.0 0.00 0.27 0.00 57 1005.5
20260506141559 67 218 1.0 4.0 0.00 0.27 0.00 56 1005.4
20260506140551 66 250 2.0 4.0 0.00 0.27 0.00 58 1005.6
20260506135550 65 211 1.0 2.0 0.00 0.27 0.00 58 1005.5
20260506134543 65 235 1.0 4.0 0.00 0.27 0.00 60 1005.5
20260506133539 66 218 3.0 4.0 0.00 0.27 0.00 58 1005.7
20260506132544 66 227 2.0 6.0 0.00 0.27 0.00 57 1005.8
20260506131537 66 205 3.0 6.0 0.00 0.27 0.00 58 1005.7
20260506130529 66 178 3.0 9.0 0.00 0.27 0.00 57 1005.7
20260506125525 66 183 3.0 6.0 0.00 0.27 0.00 56 1005.9
20260506124520 66 207 1.0 4.0 0.00 0.27 0.00 57 1005.9
20260506123517 67 191 2.0 6.0 0.00 0.27 0.00 56 1005.9
20260506122614 67 163 4.0 8.0 0.00 0.27 0.00 56 1006.0
20260506121614 68 241 2.0 8.0 0.00 0.27 0.00 56 1006.0
20260506120611 66 181 4.0 9.0 0.00 0.27 0.00 59 1006.1
20260506115605 66 176 1.0 6.0 0.00 0.27 0.00 60 1006.1
20260506114605 67 189 2.0 4.0 0.00 0.27 0.00 57 1006.2
20260506113601 66 193 2.0 6.0 0.00 0.27 0.00 60 1006.2
20260506112557 65 184 3.0 4.0 0.00 0.27 0.00 59 1006.2
20260506111549 66 188 2.0 9.0 0.00 0.27 0.00 58 1006.3
20260506110546 66 192 1.0 4.0 0.00 0.27 0.00 61 1006.5
20260506105546 65 83 1.0 4.0 0.00 0.27 0.00 60 1006.5
20260506104542 64 150 2.0 6.0 0.00 0.27 0.00 62 1006.4
20260506103535 65 200 2.0 2.0 0.00 0.27 0.00 61 1006.5
20260506102531 64 245 3.0 6.0 0.00 0.27 0.00 63 1006.7
20260506101530 64 199 2.0 7.0 0.00 0.27 0.00 63 1006.7
20260506100523 64 225 1.0 4.0 0.00 0.27 0.00 65 1006.8
20260506095518 63 179 2.0 6.0 0.00 0.27 0.00 68 1006.8
20260506094617 63 183 4.0 11.0 0.00 0.27 0.00 67 1006.7
20260506093611 63 187 2.0 9.0 0.00 0.27 0.00 67 1006.8
20260506092608 62 248 2.0 4.0 0.00 0.27 0.00 69 1006.8
20260506091608 62 219 1.0 4.0 0.00 0.27 0.00 72 1006.7
20260506090603 61 236 2.0 6.0 0.00 0.27 0.00 72 1007.0
20260506085556 61 215 2.0 4.0 0.00 0.27 0.00 75 1007.0
20260506084552 62 216 3.0 7.0 0.00 0.27 0.00 73 1006.8
20260506083551 62 201 2.0 6.0 0.00 0.27 0.00 74 1006.9
20260506082548 62 158 0.0 4.0 0.00 0.27 0.00 75 1006.9
20260506081542 60 187 2.0 4.0 0.00 0.27 0.00 78 1006.9
20260506080539 58 232 3.0 6.0 0.00 0.27 0.00 82 1006.8
20260506073529 58 174 2.0 6.0 0.00 0.27 0.00 83 1006.7
20260506072525 57 184 3.0 4.0 0.00 0.27 0.00 85 1006.7
20260506071523 58 201 3.0 7.0 0.00 0.27 0.00 83 1006.7
20260506070517 58 180 3.0 4.0 0.00 0.27 0.00 83 1006.6
20260506061558 56 178 1.0 4.0 0.00 0.27 0.00 88 1006.6
20260506060554 56 180 1.0 4.0 0.00 0.27 0.00 88 1006.6
20260506050532 54 0.0 0.0 0.00 0.27 0.00 92 1007.2
20260506044524 52 0.0 0.0 0.00 0.27 0.00 96 1007.0
20260506043520 52 0.0 0.0 0.00 0.27 0.00 97 1007.0
20260506042517 51 0.0 0.0 0.00 0.27 0.00 97 1007.0
20260506041617 52 0.0 0.0 0.00 0.27 0.00 97 1007.0
20260506040614 52 0.0 0.0 0.00 0.27 0.00 97 1007.0
20260506035608 52 203 0.0 2.0 0.00 0.27 0.00 97 1006.9
20260506034612 52 0.0 2.0 0.00 0.27 0.00 97 1006.8
20260506033604 52 196 1.0 2.0 0.00 0.27 0.00 97 1007.0
20260506032557 52 180 3.0 4.0 0.00 0.27 0.00 96 1006.9
20260506031552 52 183 2.0 4.0 0.00 0.27 0.00 97 1007.0
20260506030549 52 187 1.0 2.0 0.00 0.27 0.00 97 1007.0
20260506025549 52 180 2.0 4.0 0.00 0.27 0.00 97 1007.0
20260506024542 52 180 2.0 4.0 0.00 0.27 0.00 96 1007.0
20260506023538 52 198 1.0 4.0 0.00 0.27 0.00 97 1007.2
20260506022534 52 248 0.0 2.0 0.00 0.27 0.00 96 1007.0
20260506021530 53 0.0 0.0 0.00 0.27 0.00 96 1006.9
20260506020525 53 222 1.0 4.0 0.00 0.27 0.00 96 1006.9
20260506015524 53 196 1.0 4.0 0.00 0.27 0.00 96 1006.8
20260506014517 53 200 1.0 4.0 0.00 0.27 0.00 96 1007.0
20260506013614 53 184 2.0 4.0 0.00 0.27 0.00 96 1007.1
20260506012611 53 182 2.0 4.0 0.00 0.27 0.00 96 1007.2
20260506011608 53 184 4.0 7.0 0.00 0.27 0.00 96 1007.3
20260506010604 53 206 1.0 4.0 0.00 0.27 0.00 96 1007.2
20260506005600 53 193 1.0 2.0 0.00 0.27 0.00 96 1007.2
20260506004555 53 0.0 2.0 0.00 0.27 0.00 96 1007.2
20260506003552 53 270 0.0 2.0 0.00 0.27 0.00 96 1007.3
20260506002552 53 205 1.0 2.0 0.00 0.27 0.00 96 1007.5
20260506001545 53 190 1.0 4.0 0.00 0.27 0.00 96 1007.4
20260506000542 53 180 1.0 2.0 0.00 0.27 0.00 96 1007.7
20260505235543 53 180 1.0 2.0 0.00 0.27 0.00 96 1007.6
20260505234536 53 187 2.0 4.0 0.00 0.27 0.00 96 1007.8
20260505233532 53 184 2.0 4.0 0.00 0.27 0.00 96 1007.7
20260505232528 53 184 2.0 4.0 0.00 0.27 0.00 97 1007.7
20260505231524 53 191 2.0 4.0 0.00 0.27 0.00 97 1007.8
20260505230520 54 225 1.0 2.0 0.00 0.27 0.00 96 1007.9
20260505225517 54 194 2.0 4.0 0.00 0.27 0.00 96 1007.9
20260505224614 54 244 2.0 4.0 0.00 0.27 0.00 96 1007.9
20260505223610 54 188 2.0 4.0 0.00 0.27 0.00 96 1008.0
20260505222606 54 228 2.0 6.0 0.00 0.27 0.00 96 1007.9